Regional Weather Roundup
Issued by NWS

Home | Current Version | Previous Version | Text Only | Print | Product List | Glossary Off
Versions: 1 2 3 4 5 6 7 8 9 10 11 12 13 14 15 16 17 18 19 20 21 22 23 24 25 26 27 28 29 30 31 32 33 34 35 36 37 38 39 40 41 42 43 44 45 46 47 48 49 50

000
ASUS45 KCYS 020710
RWRWY

WYOMING REGIONAL WEATHER ROUNDUP
NATIONAL WEATHER SERVICE CHEYENNE WY
100 AM MDT SUN AUG 02 2015

NOTE:  "FAIR" INDICATES FEW OR NO CLOUDS BELOW 12,000 FEET
WITH NO SIGNIFICANT WEATHER AND/OR OBSTRUCTIONS TO VISIBILITY.

WYZ001-020800-
YELLOWSTONE NATIONAL PARK

CITY           SKY/WX    TMP DP  RH WIND       PRES   REMARKS
LK YELLOWSTONE   N/A     45  34  65 NW3       30.33F
W YELLOWSTONE  NOT AVBL

$$
WYZ002>013-054>058-071-098>099-020800-
NORTHERN WYOMING

CITY           SKY/WX    TMP DP  RH WIND       PRES   REMARKS
JACKSON        NOT AVBL
CODY           FAIR      72  34  25 SW9       30.08S
GREYBULL       FAIR      70  40  33 S5        29.97R
WORLAND        FAIR      61  34  36 CALM      30.00R
SHERIDAN       FAIR      88  30  12 S13       29.96F
BUFFALO        FAIR      72  29  20 W12       30.06S
GILLETTE       FAIR      61  32  33 S10       29.99S
HULETT         FAIR      64  34  32 SE6       30.01S
NEWCASTLE      FAIR      63  45  51 N6        30.03S

$$
WYZ014>020-022>026-101>103-020800-
CENTRAL WYOMING

CITY           SKY/WX    TMP DP  RH WIND       PRES   REMARKS
BIG PINEY      FAIR      52  29  41 N6        30.25S
PINEDALE       FAIR      48  34  57 NW6       30.26S
DUBOIS         FAIR      57  28  33 NW8       30.27S
LANDER         FAIR      71  30  21 SW10      30.10S
RIVERTON       FAIR      66  22  18 NW9       30.12R
CASPER         FAIR      59  30  33 CALM      30.08S
DOUGLAS        FAIR      66  53  63 E8        30.07S

$$
WYZ021-027>030-104>119-020800-
SOUTHERN WYOMING

CITY           SKY/WX    TMP DP  RH WIND       PRES   REMARKS
EVANSTON       FAIR      65  27  23 S5        30.25S
KEMMERER       FAIR      61  30  31 N12       30.25F
FORT BRIDGER   SUNNY     66  28  24 W8        30.26S
ROCK SPRINGS   FAIR      64  24  21 SW3       30.19S
DIXON          FAIR      58  38  47 SE5       30.21S
RAWLINS        FAIR      63  36  36 CALM      30.19S
SARATOGA       FAIR      55  32  41 S3        30.22R
LARAMIE        FAIR      59  48  67 S9        30.23F
CHEYENNE       FAIR      63  53  70 S3        30.17S
TORRINGTON     FAIR      62  55  77 NE8       30.03S
PINE BLUFFS    FAIR      64  52  63 S7        30.11F

$$


USA.gov is the U.S. government's official web portal to all federal, state and local government web resources and services.